Content
SEND FEEDBACK

Daily
Averages
Monthly
Summary
United States of America

CHOKE CANYON RESERVOIR, TEXAS


Home > North America > United States > Texas
Elevation: 230 feet     Latitude: 28 28N     Longitude: 098 16W

WEATHER
 
SELECT A DAY
Number of Records: 172,555;   Date Range: 5/14/07 - 7/31/14
 
SHARE

PRINT THIS DATA

[ ← Previous Day ]
WEATHER ALMANAC - FEBRUARY 13, 2013
[ Next Day → ]
[ °C ]   °F
Weather ElementAverageHighLow
Temperature54.7 °F60.8 °F (12:35 am)46.4 °F (7:55 am)
Dewpoint38.2 °F51.8 °F (12:35 am)35.6 °F (7:35 am)
Humidity54.8 %72 % (12:35 am)39 % (3:35 pm)
Barometer30.09 in30.18 in (10:35 am)30.01 in (12:55 am)
Wind Speed7.1 mph15 mph (7:35 am)
Wind Gust23 mph (2:15 am)
Weather ElementAverage
Visibility10 mi
Wind DirectionSE (134.2 °)

Weather ElementTotal
Precipitation---
Heating Degree Days11.4 (Base 65)
Growing Degree Days3.6 (Base 50)
Averaged from 69 records on February 13, 2013
WEATHER CONDITIONS BREAKOUT
WIND DIRECTION BREAKOUT
WEATHER BY HOUR - FEBRUARY 13, 2013
[ °C ]   °F
Local TimeTemperatureDewpointHumidityBarometerVisibilityWind DirectionWind SpeedGust SpeedPrecipitationEventsConditions
12:35 AM60.8 °F51.8 °F72 %30.02 in10.0 miNNW (340°)3.5 mphClear
12:55 AM60.8 °F42.8 °F52 %30.01 in10.0 miNorth (10°)5.8 mphClear
1:15 AM60.8 °F39.2 °F45 %30.01 in10.0 miNorth (10°)11.5 mphScattered Clouds
1:35 AM60.8 °F37.4 °F42 %30.02 in10.0 miNorth (360°)11.5 mphScattered Clouds
1:55 AM60.8 °F37.4 °F42 %30.01 in10.0 miNorth (10°)11.5 mphClear
2:15 AM59.0 °F44.6 °F59 %30.01 in10.0 miNNE (30°)13.8 mph23.0 mphClear
2:35 AM59.0 °F46.4 °F63 %30.02 in10.0 miNNE (30°)12.7 mphClear
2:55 AM59.0 °F48.2 °F67 %30.04 in10.0 miNNE (20°)9.2 mphClear
3:15 AM59.0 °F48.2 °F67 %30.06 in10.0 miNorth (10°)9.2 mphClear
3:35 AM55.4 °F41.0 °F58 %30.06 in10.0 miNorth (360°)12.7 mph17.3 mphScattered Clouds
3:55 AM53.6 °F39.2 °F58 %30.08 in10.0 miNorth (350°)10.4 mph18.4 mphClear
4:15 AM53.6 °F39.2 °F58 %30.09 in10.0 miNNW (340°)9.2 mphMostly Cloudy
4:35 AM51.8 °F39.2 °F62 %30.09 in10.0 miNorth (360°)9.2 mphRainLight Rain
4:55 AM50.0 °F39.2 °F66 %30.08 in10.0 miNorth (360°)9.2 mphMostly Cloudy
5:15 AM50.0 °F37.4 °F62 %30.08 in10.0 miNorth (360°)12.7 mph19.6 mphMostly Cloudy
5:35 AM50.0 °F37.4 °F62 %30.09 in10.0 miNorth (350°)13.8 mph18.4 mphScattered Clouds
5:55 AM50.0 °F37.4 °F62 %30.07 in10.0 miNorth (10°)12.7 mphMostly Cloudy
6:15 AM50.0 °F37.4 °F62 %30.08 in10.0 miNorth (360°)8.1 mphMostly Cloudy
6:35 AM48.2 °F37.4 °F66 %30.09 in10.0 miNorth (10°)6.9 mphRainLight Rain
6:55 AM48.2 °F37.4 °F66 %30.10 in10.0 miNorth (10°)6.9 mphScattered Clouds
7:35 AM48.2 °F35.6 °F62 %30.13 in10.0 miNNE (20°)15.0 mph18.4 mphMostly Cloudy
7:55 AM46.4 °F35.6 °F66 %30.13 in10.0 miNorth (10°)9.2 mphScattered Clouds
8:15 AM46.4 °F35.6 °F66 %30.14 in10.0 miNorth (10°)8.1 mphScattered Clouds
8:35 AM48.2 °F35.6 °F62 %30.14 in10.0 miNorth (10°)12.7 mphClear
8:55 AM48.2 °F35.6 °F62 %30.16 in10.0 miNorth (10°)15.0 mphClear
9:15 AM50.0 °F35.6 °F58 %30.17 in10.0 miNorth (10°)12.7 mphClear
9:35 AM51.8 °F37.4 °F58 %30.17 in10.0 miNNE (20°)9.2 mphScattered Clouds
10:15 AM51.8 °F37.4 °F58 %30.17 in10.0 miNorth (350°)8.1 mphClear
10:35 AM51.8 °F37.4 °F58 %30.18 in10.0 miNorth (360°)8.1 mph16.1 mphClear
10:55 AM51.8 °F37.4 °F58 %30.18 in10.0 miNorth (350°)11.5 mphClear
11:15 AM53.6 °F37.4 °F54 %30.17 in10.0 miNNE (20°)8.1 mphClear
11:35 AM53.6 °F35.6 °F51 %30.17 in10.0 miNNE (20°)6.9 mphClear
11:55 AM55.4 °F35.6 °F47 %30.16 in10.0 miNNE (30°)10.4 mphClear
12:15 PM57.2 °F37.4 °F48 %30.15 in10.0 miNNE (30°)9.2 mphClear
12:35 PM57.2 °F37.4 °F48 %30.14 in10.0 miNorth (360°)9.2 mphClear
12:55 PM59.0 °F37.4 °F45 %30.13 in10.0 miNorth (350°)3.5 mphClear
1:15 PM59.0 °F37.4 °F45 %30.12 in10.0 miNorth (10°)5.8 mphClear
1:35 PM59.0 °F37.4 °F45 %30.11 in10.0 miNorth (350°)9.2 mphClear
1:55 PM59.0 °F37.4 °F45 %30.10 in10.0 miNorth (360°)9.2 mphClear
2:15 PM59.0 °F37.4 °F45 %30.08 in10.0 miNNW (330°)6.9 mphClear
2:35 PM60.8 °F37.4 °F42 %30.08 in10.0 miNNW (330°)6.9 mphClear
2:55 PM60.8 °F37.4 °F42 %30.07 in10.0 miNE (40°)3.5 mphClear
3:15 PM60.8 °F37.4 °F42 %30.06 in10.0 miNorth (360°)5.8 mphClear
3:35 PM60.8 °F35.6 °F39 %30.05 in10.0 miCalmClear
3:55 PM60.8 °F37.4 °F42 %30.05 in10.0 miNNE (20°)5.8 mphClear
4:15 PM60.8 °F35.6 °F39 %30.04 in10.0 miNorth (350°)3.5 mphClear
4:35 PM60.8 °F35.6 °F39 %30.04 in10.0 miNorth (10°)4.6 mphClear
4:55 PM60.8 °F35.6 °F39 %30.04 in10.0 miNNE (30°)8.1 mphClear
5:15 PM60.8 °F35.6 °F39 %30.04 in10.0 miNorth (10°)8.1 mphClear
5:35 PM60.8 °F35.6 °F39 %30.04 in10.0 miNNE (20°)6.9 mphClear
5:55 PM59.0 °F35.6 °F42 %30.04 in10.0 miNorth (10°)5.8 mphClear
6:15 PM59.0 °F37.4 °F45 %30.04 in10.0 miNorth (360°)4.6 mphClear
6:35 PM57.2 °F37.4 °F48 %30.04 in10.0 miNorth (360°)3.5 mphClear
6:55 PM55.4 °F37.4 °F51 %30.04 in10.0 miENE (60°)3.5 mphClear
7:15 PM55.4 °F37.4 °F51 %30.05 in10.0 miNNE (30°)3.5 mphClear
7:35 PM55.4 °F37.4 °F51 %30.05 in10.0 miNNE (30°)3.5 mphClear
7:55 PM53.6 °F37.4 °F54 %30.05 in10.0 miCalmClear
8:15 PM53.6 °F37.4 °F54 %30.06 in10.0 miCalmClear
8:35 PM53.6 °F37.4 °F54 %30.06 in10.0 miCalmClear
8:55 PM50.0 °F41.0 °F71 %30.07 in10.0 miCalmClear
9:15 PM50.0 °F41.0 °F71 %30.08 in10.0 miCalmClear
9:35 PM50.0 °F39.2 °F66 %30.08 in10.0 miEast (80°)4.6 mphClear
9:55 PM50.0 °F37.4 °F62 %30.09 in10.0 miEast (90°)3.5 mphClear
10:15 PM50.0 °F37.4 °F62 %30.09 in10.0 miEast (90°)3.5 mphClear
10:35 PM50.0 °F37.4 °F62 %30.10 in10.0 miCalmClear
10:55 PM50.0 °F37.4 °F62 %30.10 in10.0 miEast (90°)3.5 mphClear
11:15 PM48.2 °F37.4 °F66 %30.11 in10.0 miEast (90°)4.6 mphClear
11:35 PM48.2 °F37.4 °F66 %30.11 in10.0 miEast (100°)4.6 mphClear
11:55 PM48.2 °F37.4 °F66 %30.11 in10.0 miCalmClear
Hourly data recorded from KBEA, located miles away from Choke Canyon Reservoir, Texas







STORIES FROM OUR PARTNERS